Location: Cortos
(40.7190°N, 4.5893°W)
Time: 19:49:05
(UTC+00:00)

SPOT 1/Viking Rocket - Pass Details

Date: 05 July 2020
Orbit: 778 x 793 km, 98.5° (Epoch: 05 August)

Event Time Altitude Azimuth Distance (km) Brightness Sun altitude
Exits shadow 21:31:51 22° 158° (SSE) 1,648 4.6 -15.2°
Maximum altitude 21:35:14 77° 74° (ENE) 804 3.5 -15.6°
Drops below altitude 10° 21:40:24 10° 350° (N) 2,347 7.0 -16.2°
Sets 21:42:44 0° 349° (N) 3,281 7.9 -16.5°
